Location: St. Louis
(38.6270°N, 90.1994°W)
Time: 13:34:24
(UTC-06:00)

Vanguard 1 - Pass Details

Date: 09 December 2021
Orbit: 652 x 3830 km, 34.2° (Epoch: 19 January)

Event Time Altitude Azimuth Distance (km) Brightness Sun altitude
Rises 20:07:26 0° 207° (SSW) 5,578 14.2 -39.8°
Reaches altitude 10° 20:10:58 10° 199° (SSW) 4,965 13.8 -40.5°
Enters shadow 20:20:45 35° 160° (SSE) 4,169 12.9 -42.4°
Maximum altitude 20:24:49 38° 137° (SE) 4,294 - -43.2°
Drops below altitude 10° 20:44:17 10° 80° (E) 6,932 - -47.0°
Sets 20:50:21 0° 74° (ENE) 7,951 - -48.1°
